User: anonymous   Login
Location: Carri�res
(48.9069°N, 2.1792°E)
Time: 21:18:08
(UTC+00:00)
Language:

Cosmos 158 Rocket - Orbit

View from above orbital plane
View from above orbital plane
View from above satellite
View from above satellite

Ground track
Ground track

The orbit data is extracted from the following two-line orbital elements,

1 02802U 67045B   21104.37323935 -.00000031  00000-0 -10134-5 0  9997
2 02802  74.0094  85.4204 0066266 164.9749 195.3398 14.43801918830601
Epoch (UTC): 14 April 2021 08:57:27
Eccentricity: 0.0066266
inclination: 74.0094°
perigee height: 699 km
apogee height: 793 km
right ascension of ascending node: 85.4204°
argument of perigee: 164.9749°
revolutions per day: 14.43801918
mean anomaly at epoch: 195.3398°
orbit number at epoch: 83060

The dashed part of the orbit path shows where the satellite is in the earth's shadow,  

DLR